Wind_Speed
97 94 94 94 91 86 81 73 63 61 65 70 73 73 73 70 67 67 67 66 65 65 66 68 70 68 65 62 60 60 60 59 57 54 52 49 47 46 45 46 48 49 48 47 47 48 44 40 39 38 36 35 35 34 32 30 31 35 34 32 29 27
99 99 98 95 91 89 87 79 72 72 73 74 74 72 69 67 68 70 69 68 67 67 67 68 67 64 61 61 61 61 59 57 54 51 49 47 46 45 46 48 49 49 49 50 52 48 42 40 39 38 38 37 36 35 32 31 33 36 35 33 30 28
92 93 94 93 90 86 85 83 83 83 80 78 75 71 70 71 74 74 71 69 68 66 66 65 63 60 61 61 61 60 57 54 51 49 48 47 46 47 48 49 50 51 53 54 52 46 41 41 41 42 40 36 36 36 33 32 34 37 35 33 32 29
84 85 86 87 87 85 84 85 86 86 85 83 76 73 75 77 76 73 71 70 68 67 66 63 62 63 63 61 58 57 54 51 50 49 48 48 48 50 51 52 53 55 56 54 49 43 42 43 43 42 38 36 37 37 34 32 35 38 35 34 33 30
77 77 77 76 76 77 79 80 82 84 87 85 81 80 81 79 75 72 71 71 70 68 65 63 63 62 59 57 56 55 53 53 52 51 50 50 52 53 54 55 56 56 55 50 45 43 43 43 42 38 35 37 39 36 33 32 35 39 37 35 34 31
71 69 68 69 71 74 76 79 81 83 85 85 84 84 82 78 74 71 72 73 71 67 65 64 63 59 56 55 55 55 55 54 53 53 54 55 57 58 58 57 56 54 50 46 44 44 43 42 41 37 34 37 39 36 33 34 36 39 38 35 35 33
64 64 65 70 75 77 79 79 80 81 82 83 83 82 80 77 73 73 74 73 69 66 63 61 62 61 59 58 56 55 55 54 54 56 59 61 61 59 58 56 55 51 46 44 45 45 44 44 43 39 37 38 39 37 35 35 37 38 38 36 35 35
62 65 69 73 76 77 78 78 78 78 80 80 79 76 74 73 72 73 73 71 69 67 64 62 62 61 59 58 58 58 57 58 60 61 62 61 59 57 56 55 53 49 46 47 47 45 46 48 44 42 43 42 41 41 39 36 37 38 37 36 37 36
63 68 71 72 74 75 76 77 77 76 75 73 71 70 71 72 73 73 72 72 71 69 65 64 63 60 58 60 61 62 62 62 62 62 60 58 56 56 55 53 50 48 48 48 47 47 48 47 44 45 47 45 43 43 39 36 37 37 36 36 37 36
65 68 70 72 73 73 73 73 71 69 69 68 69 71 74 75 75 74 74 74 71 68 65 64 63 62 62 64 64 63 62 62 60 59 58 57 56 54 53 51 49 49 50 49 49 50 51 47 45 47 49 46 42 39 36 35 36 36 35 35 36 35
66 67 70 72 73 74 72 70 68 68 70 71 73 75 77 77 76 77 76 74 70 68 67 66 67 67 67 66 65 63 61 59 57 57 57 56 53 51 50 50 49 49 49 49 50 53 53 50 49 51 51 47 41 36 34 34 35 35 34 34 35 34
69 71 73 75 75 74 73 71 70 72 74 75 77 78 78 78 77 76 75 73 72 71 70 69 69 68 67 66 64 61 59 56 56 55 54 53 52 50 50 50 50 50 49 50 52 53 51 52 54 53 50 45 38 33 33 34 34 35 34 34 35 35
72 74 76 77 75 73 73 73 73 74 76 77 78 78 78 77 76 75 74 72 70 69 69 68 67 66 65 64 62 60 57 55 53 52 51 51 52 52 51 51 51 51 52 53 53 52 52 53 53 50 45 40 34 31 32 33 34 35 34 35 37 38
72 74 75 76 75 74 74 74 75 76 77 79 80 80 79 76 75 74 72 68 65 64 63 63 62 62 62 62 60 59 57 54 52 52 53 52 52 53 54 55 56 58 57 54 52 51 52 50 47 44 39 35 32 31 32 33 34 34 34 37 39 41
73 74 74 75 75 75 76 77 79 80 80 81 81 80 78 75 72 70 66 63 61 59 59 59 58 57 58 58 57 57 57 57 56 55 52 48 47 49 52 55 57 60 59 55 54 53 49 43 40 39 36 31 30 31 31 32 33 33 34 37 39 41
70 71 73 75 75 76 77 78 79 80 79 79 78 76 74 72 69 65 62 60 59 57 56 56 54 54 56 54 52 51 53 55 53 48 43 41 41 40 42 45 45 48 51 51 52 50 44 39 36 35 32 30 29 30 30 30 31 32 33 35 37 39
65 66 68 71 72 72 72 72 72 72 72 73 74 72 71 69 66 65 64 62 59 57 55 54 53 53 54 49 46 46 49 50 46 42 40 40 42 41 39 40 39 40 41 41 41 40 37 35 33 30 29 29 29 29 29 28 29 32 35 35 36 37
62 62 64 65 66 66 66 67 68 69 70 72 73 73 72 70 68 66 65 62 58 54 52 52 51 51 50 44 40 40 43 44 41 40 42 44 47 47 46 46 45 42 40 39 37 36 34 32 30 28 26 27 29 30 29 28 29 31 35 37 38 39
61 61 62 62 63 64 65 67 69 70 71 72 72 72 71 68 65 62 60 57 54 51 50 50 50 49 46 42 38 36 37 39 42 44 46 46 46 47 47 48 48 46 44 42 40 39 37 33 28 27 26 26 29 31 29 28 29 30 33 36 38 40
62 61 61 61 63 64 65 66 68 70 70 69 67 64 62 59 56 54 53 52 50 49 48 49 50 49 48 47 45 44 44 44 46 48 48 48 50 53 53 53 52 50 47 44 41 38 37 32 27 27 28 27 29 31 30 28 29 30 31 33 36 39
62 62 63 63 63 64 65 66 66 67 66 64 60 56 53 51 48 46 46 47 47 46 47 48 50 51 52 54 54 53 54 54 53 53 55 57 61 63 62 61 60 56 52 48 42 37 34 33 30 30 31 29 28 30 30 29 30 30 31 31 33 37
60 61 62 62 62 63 64 65 63 60 57 56 54 51 48 46 44 43 42 43 44 44 45 45 47 49 52 56 58 58 59 61 61 62 64 64 64 63 61 61 60 59 56 50 43 39 36 34 32 33 34 31 29 30 30 31 31 32 32 32 32 35
57 58 59 59 60 60 60 59 54 50 49 49 50 48 46 43 41 40 40 40 41 41 42 43 44 45 48 51 54 57 57 58 59 59 59 58 57 56 56 56 54 53 52 47 42 39 37 34 33 35 36 33 32 32 32 33 32 32 33 33 33 35
54 55 57 57 56 55 54 52 48 47 48 48 48 47 45 43 40 39 38 37 38 38 38 39 40 41 42 44 46 48 49 49 49 49 49 49 49 49 50 50 50 48 47 46 43 39 37 36 34 36 38 36 34 33 33 34 34 35 34 34 35 36
53 54 52 49 48 48 50 50 50 49 49 47 47 46 45 43 41 39 37 36 35 35 35 36 37 37 37 38 40 41 42 42 42 42 42 43 44 44 45 45 46 46 46 45 43 40 40 38 36 36 38 36 34 34 34 34 35 36 35 34 34 36
50 46 41 40 44 46 48 51 52 52 50 48 46 46 45 44 42 40 38 36 35 34 34 34 34 34 34 34 35 36 37 37 38 38 38 39 39 40 41 41 42 42 43 42 42 41 41 40 38 36 36 35 34 35 36 35 34 34 35 35 34 36
43 38 35 38 44 46 48 50 52 54 53 50 48 46 45 44 42 41 38 37 35 33 33 33 33 32 32 32 32 33 34 34 35 35 36 36 36 36 37 38 38 38 39 39 40 40 40 41 39 37 37 36 36 38 39 37 35 33 35 37 36 36
40 38 35 38 43 46 49 51 54 57 56 54 50 48 45 43 42 41 39 37 35 34 33 32 33 32 31 31 31 31 31 31 31 32 32 32 32 32 33 34 35 35 36 37 39 39 39 40 40 40 40 38 38 40 42 40 37 33 34 38 38 38
40 38 34 39 44 48 51 54 57 60 59 56 52 49 46 43 42 41 40 38 36 34 33 33 32 32 31 30 30 29 29 28 28 29 30 31 30 30 31 31 32 33 33 34 37 38 39 40 41 41 41 40 39 40 42 42 37 34 34 37 40 40
41 38 35 39 47 52 55 56 58 61 61 56 51 49 46 44 43 41 40 39 37 35 34 34 33 32 31 30 29 29 28 28 28 28 29 30 30 31 31 31 31 31 32 32 34 35 38 40 42 42 41 39 39 39 42 42 37 34 36 38 40 42
39 39 37 41 49 55 58 59 61 63 60 54 49 47 46 44 43 42 42 40 39 37 35 34 34 34 33 32 31 30 30 29 29 30 30 30 31 31 31 33 33 33 34 34 34 34 36 40 42 44 42 40 40 40 41 42 38 35 38 41 42 44
38 40 38 42 49 54 57 60 61 59 53 49 47 45 45 45 44 43 43 42 41 39 37 36 35 34 34 34 33 33 32 32 33 33 33 32 32 32 32 33 34 36 37 37 37 35 35 38 41 44 45 43 42 42 42 43 42 37 37 42 45 46
47 46 40 42 47 49 50 53 53 50 48 47 45 44 44 44 44 44 44 44 43 42 40 38 36 35 35 35 35 35 35 35 35 35 35 34 34 34 34 34 35 36 37 38 38 37 36 36 38 42 45 46 46 46 45 45 45 41 38 42 46 47
52 50 46 46 47 47 47 47 48 47 45 45 45 44 44 44 45 45 45 45 45 45 43 41 39 38 37 37 37 37 37 37 37 37 37 36 35 34 35 35 36 37 38 38 38 38 37 36 37 38 42 45 48 49 48 47 48 45 42 42 45 47
48 49 50 51 51 51 51 50 49 47 44 44 44 44 44 45 45 46 46 47 46 47 47 45 43 41 40 39 39 39 39 39 39 39 39 38 37 36 36 35 36 37 38 39 39 39 38 38 38 38 39 42 45 47 48 49 50 48 45 45 46 47
46 47 51 55 55 53 53 52 52 50 48 47 46 45 46 47 47 47 47 48 48 48 48 48 47 46 44 43 42 42 42 42 42 42 41 41 40 39 39 38 37 37 38 40 40 41 41 41 40 40 40 40 42 44 46 48 49 49 47 46 48 49
48 49 53 57 59 57 55 54 53 52 51 50 49 49 49 50 50 50 49 48 48 48 49 49 49 49 48 48 46 45 45 45 44 44 44 43 43 42 41 41 40 38 38 39 40 42 42 43 43 43 42 41 42 43 44 45 47 48 47 47 49 51
Wind_Direction
272 272 274 276 276 277 280 283 281 279 282 285 286 285 284 284 283 283 283 283 283 283 285 288 290 291 290 289 289 289 288 287 286 286 286 286 284 281 279 278 279 279 281 283 285 291 290 284 284 288 292 292 288 281 278 278 272 267 264 260 255 247
271 271 273 274 274 273 275 277 276 277 280 284 285 282 281 281 283 283 283 284 286 286 288 290 291 290 289 288 288 287 286 286 285 285 284 283 280 278 278 278 277 278 280 283 287 290 284 279 283 288 290 289 283 278 278 279 271 266 263 257 254 245
269 270 272 272 271 271 273 273 273 275 278 282 281 278 278 280 283 283 283 286 287 288 289 290 289 288 288 287 286 285 285 285 284 282 281 278 276 276 277 276 276 277 280 284 287 286 280 279 284 287 288 284 278 276 280 281 270 264 261 254 251 243
270 271 271 271 270 270 272 272 272 272 275 278 277 275 277 281 283 282 283 285 286 288 289 287 286 286 286 285 284 283 282 281 280 278 277 275 275 276 277 277 277 278 281 284 284 282 279 280 286 287 284 278 275 277 281 279 267 262 258 252 250 241
270 270 270 271 271 271 271 272 272 271 272 274 274 275 277 280 282 281 283 285 286 288 287 286 286 286 285 284 283 280 279 279 277 275 274 274 276 278 278 278 279 280 282 283 281 281 281 282 287 287 280 275 275 278 282 275 264 261 258 252 248 240
268 269 270 271 272 272 272 272 272 271 271 272 273 275 276 278 281 281 283 285 287 287 287 286 286 286 285 284 282 279 279 279 276 274 274 276 279 280 280 279 280 282 281 278 278 282 282 283 287 286 279 276 276 278 282 273 262 260 257 252 245 237
263 265 269 272 274 273 273 273 273 273 272 273 274 275 276 278 280 282 284 285 285 286 286 285 284 284 282 280 280 280 280 277 275 276 278 280 280 280 279 280 282 281 277 273 278 282 281 283 288 285 280 280 276 276 281 272 260 257 256 252 244 235
259 264 270 273 274 273 273 273 273 273 274 274 274 275 276 278 282 284 284 284 284 284 283 282 282 281 279 278 279 280 279 277 278 279 280 280 279 278 279 281 282 278 273 274 279 280 282 284 286 283 280 281 276 275 279 268 257 254 252 251 244 235
263 267 270 271 271 272 272 272 272 272 273 273 274 275 278 282 285 285 284 285 285 283 281 279 279 276 275 277 279 279 278 278 280 280 279 277 277 277 279 280 278 273 273 277 278 279 283 283 281 282 282 280 275 273 274 263 253 250 247 246 241 236
266 267 268 268 269 270 271 270 269 269 270 271 274 278 282 285 285 284 285 286 285 283 280 278 276 274 274 276 277 277 277 278 277 277 276 275 276 276 276 276 274 272 275 277 276 278 282 280 279 283 284 280 274 271 268 257 249 246 244 240 236 232
261 263 265 266 267 267 266 266 267 269 270 272 275 280 285 286 286 286 286 286 284 283 281 279 277 275 275 275 275 274 275 275 273 273 273 273 274 273 272 271 271 274 276 276 276 279 280 278 280 285 284 279 273 268 262 252 245 243 240 236 231 224
257 260 263 264 265 264 263 264 266 269 271 274 277 282 285 286 287 287 286 285 283 282 281 279 277 276 275 274 273 273 272 271 270 270 270 271 273 273 271 269 271 274 275 277 278 279 278 277 280 284 282 277 270 265 258 249 241 239 236 231 225 217
258 260 261 262 263 263 264 266 269 272 274 277 280 283 285 285 286 287 286 284 282 280 279 278 276 274 273 272 271 269 268 267 267 266 267 270 272 273 272 270 272 273 274 278 278 278 280 279 280 281 278 272 265 259 253 246 240 236 233 226 220 217
255 258 260 261 262 263 265 268 272 275 278 279 281 283 285 285 286 286 285 283 281 279 277 275 273 272 271 271 269 266 264 263 262 265 269 270 272 274 273 271 272 271 273 275 275 279 282 280 279 275 270 264 259 254 247 242 238 234 232 225 220 220
250 253 257 260 263 264 266 269 271 274 277 279 281 283 284 285 285 285 283 281 280 278 276 273 271 269 268 268 266 263 261 260 262 267 269 268 269 271 271 270 271 270 271 270 272 278 281 278 276 270 263 258 253 249 244 238 235 231 230 227 222 222
250 253 256 258 261 264 267 269 271 274 276 279 281 282 284 284 284 281 279 279 278 277 274 271 268 264 264 266 265 263 259 259 263 264 261 259 258 259 264 270 274 274 271 270 271 273 276 276 272 266 261 255 249 244 241 236 233 230 228 229 226 224
256 258 259 260 261 264 267 270 273 276 278 280 282 283 284 284 282 279 278 278 277 275 272 269 264 259 261 265 263 258 254 258 262 257 254 253 252 252 257 266 275 277 274 271 268 266 270 272 265 261 258 249 242 240 237 234 233 231 229 230 231 230
262 263 263 263 265 266 269 272 275 277 280 282 283 284 284 283 281 278 278 277 276 273 270 267 264 260 260 260 256 252 250 253 253 250 253 253 252 253 256 264 271 274 273 269 263 261 266 267 259 254 250 241 237 236 234 232 231 231 233 232 232 233
266 267 267 268 269 271 273 275 276 278 281 283 283 283 283 282 281 279 277 276 273 271 267 263 261 258 256 252 248 245 243 245 247 250 253 251 249 252 257 264 268 268 270 268 263 261 263 263 256 247 239 233 232 232 230 230 230 230 233 234 234 233
269 271 272 273 275 277 279 280 281 282 283 283 282 282 283 283 282 281 279 276 273 269 265 261 257 253 250 246 243 242 241 243 248 251 249 249 253 257 259 262 264 265 266 266 264 259 257 256 252 240 228 226 230 230 228 230 232 231 232 234 235 233
271 273 275 276 279 281 283 284 285 285 285 284 282 282 282 283 282 281 279 276 273 269 266 262 258 253 247 244 244 245 244 243 245 248 249 253 258 260 260 259 261 262 262 264 261 253 251 252 247 234 223 223 230 231 230 232 235 235 234 234 235 233
273 275 277 279 281 284 285 285 285 284 285 286 286 284 283 282 280 278 276 274 272 269 266 263 260 257 252 248 248 250 250 248 249 252 255 257 259 259 259 258 259 259 259 259 255 247 246 247 241 231 223 222 228 232 235 236 236 236 235 235 236 233
274 278 280 282 283 284 284 284 284 285 288 290 290 288 286 284 281 278 275 273 272 270 267 264 261 259 256 254 253 254 254 254 254 255 256 257 257 256 256 256 256 256 254 251 249 245 239 237 235 229 225 225 229 233 237 239 239 238 237 236 237 233
275 279 281 283 285 285 284 282 284 289 293 292 291 290 289 287 285 282 279 277 275 273 270 267 263 261 259 258 257 256 256 256 256 256 255 255 255 254 253 253 252 251 250 248 247 242 232 232 233 227 226 228 231 234 237 240 242 242 241 239 236 232
273 277 280 285 287 288 286 284 284 290 293 291 290 291 291 290 289 287 285 282 280 277 274 270 267 264 262 260 260 259 258 258 257 256 255 255 254 254 253 252 251 250 249 247 244 237 230 232 234 227 225 227 230 234 236 239 241 243 244 240 234 231
270 272 276 283 287 286 286 283 282 287 291 289 289 290 291 292 291 291 290 287 284 281 278 275 271 267 264 262 261 261 261 259 258 256 255 255 255 255 254 253 252 251 249 246 242 236 229 230 232 227 225 226 228 231 233 236 237 239 242 240 234 231
264 262 268 279 282 283 284 281 279 283 288 287 287 287 288 290 291 291 291 290 287 284 281 277 274 271 267 265 263 262 262 260 259 258 256 255 255 255 256 254 253 251 249 246 243 238 230 227 228 226 224 227 228 228 231 233 234 238 242 241 237 233
257 255 266 277 280 282 283 281 278 280 286 286 284 283 284 285 287 289 290 289 288 286 282 279 275 272 269 267 265 263 262 261 260 260 258 258 256 255 255 255 254 252 250 247 244 241 235 228 227 225 225 229 231 229 230 232 235 242 245 243 240 236
249 253 268 276 279 282 282 281 277 279 284 284 282 281 280 281 282 284 286 287 287 285 282 279 275 272 268 266 264 262 260 259 258 259 259 259 258 257 255 254 253 253 251 249 246 244 238 231 228 226 228 234 237 235 231 231 237 246 247 244 242 239
247 250 264 273 279 281 281 279 277 279 284 283 279 278 277 277 278 279 281 283 284 283 281 278 274 270 266 263 261 260 258 257 257 257 258 259 259 258 256 253 252 253 254 253 250 247 242 236 231 230 231 236 239 239 234 231 236 245 246 243 241 239
250 252 262 270 277 279 279 277 277 281 284 281 278 277 275 274 274 274 276 278 279 280 278 277 273 269 265 261 258 256 256 256 257 258 259 260 260 258 256 252 249 250 254 255 254 250 245 240 236 234 234 233 234 236 234 230 233 241 243 241 239 238
255 260 265 269 274 276 275 275 277 281 283 282 281 279 276 274 272 271 272 273 274 275 275 275 272 269 264 260 257 254 253 253 254 256 257 259 259 258 257 254 251 250 251 253 254 253 249 245 241 238 237 233 230 230 229 228 230 236 239 238 238 238
256 263 267 269 275 277 275 275 277 281 282 283 284 282 279 275 272 270 269 269 269 270 270 271 270 268 265 260 256 254 252 251 251 253 254 255 255 256 256 255 254 252 251 251 253 254 252 250 246 243 240 237 234 231 230 229 229 233 236 236 237 238
258 269 271 271 274 275 275 275 276 278 279 281 282 282 282 278 274 271 268 267 266 265 265 265 265 265 263 261 257 255 253 251 251 252 253 253 253 253 253 253 253 253 253 253 253 253 253 252 250 248 244 242 240 238 237 234 232 234 236 234 234 238
262 270 272 271 269 268 269 270 270 271 273 277 279 279 280 280 276 272 269 267 265 264 263 262 261 261 260 260 257 256 255 254 253 252 253 253 252 252 252 252 252 253 253 253 253 254 254 253 252 251 248 246 244 244 243 241 239 239 239 234 232 235
264 265 267 269 268 264 262 261 262 263 266 271 274 276 277 278 276 274 271 269 266 265 264 263 261 259 258 257 256 255 254 254 254 253 252 252 252 252 252 252 252 252 252 252 253 253 254 254 254 252 251 249 247 246 246 245 245 244 242 237 233 233
259 256 255 260 264 263 261 260 260 262 265 268 272 274 274 274 274 273 272 271 269 267 265 263 262 260 259 257 255 254 252 252 252 251 251 251 251 251 251 252 252 252 252 252 251 252 253 253 253 253 252 251 249 247 247 247 247 247 244 240 236 234
Height
10763 10764 10766 10769 10770 10769 10769 10771 10770 10768 10769 10770 10769 10768 10768 10768 10768 10769 10770 10770 10769 10769 10768 10767 10765 10764 10764 10763 10763 10763 10762 10762 10761 10761 10760 10759 10758 10758 10758 10757 10756 10756 10757 10757 10758 10759 10759 10759 10759 10759 10759 10759 10758 10758 10757 10757 10755 10752 10751 10753 10757 10759
10757 10757 10758 10761 10763 10763 10763 10765 10763 10763 10764 10765 10763 10762 10762 10762 10762 10763 10764 10764 10764 10765 10763 10761 10759 10758 10759 10758 10757 10756 10755 10756 10756 10755 10755 10754 10754 10754 10754 10753 10752 10752 10752 10752 10753 10755 10755 10755 10755 10755 10755 10754 10754 10754 10754 10753 10750 10747 10748 10749 10752 10755
10752 10752 10753 10754 10755 10756 10756 10757 10756 10757 10759 10759 10758 10756 10756 10756 10757 10758 10759 10759 10759 10759 10757 10755 10752 10752 10753 10753 10751 10750 10750 10750 10750 10750 10750 10750 10749 10749 10749 10749 10748 10747 10747 10747 10748 10750 10750 10751 10751 10750 10750 10750 10749 10749 10750 10749 10745 10742 10744 10745 10747 10750
10746 10746 10746 10747 10748 10749 10750 10750 10750 10751 10752 10752 10751 10750 10751 10751 10752 10753 10754 10754 10753 10752 10751 10748 10746 10745 10746 10746 10746 10745 10744 10745 10744 10744 10744 10744 10744 10744 10744 10744 10744 10742 10742 10742 10743 10744 10745 10746 10747 10746 10745 10744 10745 10746 10747 10745 10740 10737 10740 10741 10742 10745
10740 10739 10739 10739 10740 10742 10743 10743 10743 10744 10745 10745 10744 10744 10746 10747 10747 10748 10748 10747 10747 10747 10745 10743 10741 10739 10739 10740 10741 10740 10739 10739 10739 10739 10739 10739 10739 10739 10739 10739 10739 10738 10737 10737 10738 10739 10740 10741 10742 10741 10740 10739 10740 10742 10743 10740 10735 10732 10735 10738 10738 10740
10733 10732 10732 10733 10734 10735 10735 10736 10736 10737 10738 10738 10738 10739 10740 10742 10742 10742 10741 10742 10743 10742 10739 10738 10735 10733 10733 10733 10734 10734 10734 10733 10733 10733 10733 10733 10733 10733 10733 10733 10733 10733 10732 10732 10732 10733 10735 10736 10736 10736 10735 10735 10736 10738 10738 10735 10731 10728 10731 10734 10735 10736
10727 10727 10727 10728 10728 10728 10727 10728 10729 10729 10731 10731 10733 10733 10734 10737 10737 10735 10734 10736 10739 10736 10733 10732 10730 10727 10727 10727 10727 10728 10729 10728 10728 10728 10727 10727 10727 10727 10727 10727 10728 10727 10727 10727 10728 10728 10729 10730 10730 10730 10730 10731 10732 10733 10733 10731 10727 10725 10726 10729 10731 10732
10722 10722 10722 10722 10722 10721 10721 10721 10722 10723 10724 10725 10727 10728 10729 10731 10731 10729 10728 10730 10732 10732 10729 10725 10723 10721 10721 10721 10721 10722 10722 10722 10722 10722 10722 10721 10721 10721 10722 10722 10722 10722 10722 10722 10723 10724 10724 10724 10724 10724 10725 10726 10727 10728 10728 10727 10723 10722 10723 10725 10728 10729
10716 10716 10716 10716 10716 10716 10716 10715 10717 10717 10718 10719 10720 10722 10723 10724 10725 10723 10722 10723 10724 10725 10724 10720 10717 10715 10715 10715 10715 10715 10716 10715 10715 10716 10715 10715 10715 10716 10716 10717 10718 10717 10717 10717 10718 10718 10719 10720 10719 10719 10719 10720 10722 10722 10723 10722 10719 10718 10719 10721 10724 10725
10710 10710 10710 10710 10710 10710 10710 10709 10711 10711 10711 10713 10715 10716 10716 10716 10717 10717 10717 10717 10716 10716 10716 10714 10711 10709 10710 10711 10709 10709 10709 10710 10709 10708 10709 10710 10711 10711 10711 10712 10713 10712 10712 10712 10712 10712 10712 10714 10714 10714 10713 10714 10716 10717 10718 10717 10715 10714 10716 10718 10720 10722
10704 10703 10704 10704 10704 10705 10705 10704 10705 10705 10706 10708 10710 10711 10710 10709 10709 10709 10710 10710 10709 10707 10708 10707 10704 10703 10704 10705 10703 10702 10704 10704 10703 10702 10702 10703 10705 10707 10707 10707 10707 10707 10707 10707 10706 10706 10706 10707 10708 10709 10709 10709 10711 10711 10712 10712 10711 10710 10712 10714 10716 10718
10698 10698 10699 10700 10701 10700 10700 10700 10700 10700 10701 10702 10703 10705 10704 10703 10701 10701 10702 10703 10702 10700 10700 10699 10697 10697 10697 10696 10696 10696 10697 10697 10697 10697 10696 10697 10699 10701 10703 10703 10702 10703 10702 10701 10702 10702 10701 10702 10702 10703 10703 10704 10705 10705 10706 10708 10707 10706 10707 10709 10712 10714
10693 10693 10694 10696 10697 10696 10695 10694 10694 10695 10696 10697 10697 10698 10699 10697 10695 10694 10695 10695 10695 10694 10693 10692 10691 10691 10689 10688 10689 10689 10690 10691 10691 10692 10692 10692 10694 10695 10698 10698 10697 10697 10696 10696 10697 10696 10696 10696 10697 10697 10698 10698 10699 10700 10702 10703 10703 10702 10702 10705 10708 10709
10690 10689 10689 10691 10692 10692 10691 10690 10690 10689 10689 10690 10691 10691 10692 10691 10688 10687 10687 10688 10688 10687 10686 10685 10686 10685 10684 10682 10682 10683 10684 10685 10686 10687 10689 10690 10691 10691 10690 10690 10689 10689 10691 10692 10692 10691 10690 10690 10690 10691 10691 10692 10693 10695 10697 10698 10699 10699 10699 10701 10703 10706
10689 10688 10687 10687 10687 10687 10686 10685 10685 10685 10685 10685 10686 10686 10685 10685 10683 10682 10681 10681 10680 10679 10678 10679 10680 10680 10679 10678 10678 10678 10679 10680 10682 10684 10687 10691 10692 10686 10681 10681 10682 10682 10685 10687 10686 10686 10685 10684 10684 10685 10685 10687 10688 10690 10692 10693 10695 10696 10696 10697 10700 10702
10684 10684 10684 10683 10683 10682 10681 10680 10680 10681 10681 10681 10681 10681 10680 10680 10679 10678 10678 10676 10674 10673 10672 10671 10673 10674 10674 10674 10674 10673 10673 10674 10678 10681 10685 10689 10686 10678 10673 10675 10676 10676 10679 10680 10680 10680 10680 10679 10679 10680 10681 10683 10684 10686 10688 10689 10691 10693 10693 10694 10696 10698
10677 10677 10677 10677 10678 10679 10679 10678 10677 10677 10676 10675 10675 10675 10674 10675 10674 10673 10672 10670 10669 10667 10665 10665 10667 10668 10669 10670 10669 10668 10667 10669 10672 10675 10678 10680 10676 10670 10669 10670 10671 10672 10673 10674 10675 10675 10675 10673 10674 10677 10678 10680 10681 10682 10684 10685 10687 10689 10689 10690 10692 10694
10670 10669 10669 10670 10672 10673 10674 10674 10674 10673 10673 10671 10669 10668 10667 10669 10668 10667 10665 10663 10661 10660 10657 10657 10660 10661 10662 10663 10662 10662 10663 10663 10665 10668 10671 10671 10669 10666 10665 10665 10666 10667 10668 10669 10670 10671 10671 10670 10671 10673 10674 10676 10677 10679 10680 10681 10682 10684 10685 10686 10688 10689
10661 10661 10662 10663 10664 10665 10667 10668 10669 10669 10670 10669 10666 10663 10660 10661 10660 10658 10656 10655 10655 10654 10652 10652 10654 10655 10655 10654 10654 10657 10659 10658 10658 10661 10663 10663 10663 10662 10662 10661 10661 10662 10664 10665 10666 10667 10667 10667 10668 10669 10671 10672 10673 10674 10676 10677 10678 10680 10681 10682 10683 10685
10653 10653 10654 10655 10656 10657 10659 10661 10663 10663 10664 10665 10664 10660 10656 10654 10653 10650 10648 10647 10648 10647 10647 10648 10650 10651 10651 10649 10650 10652 10655 10655 10654 10654 10655 10656 10655 10656 10657 10657 10655 10657 10659 10660 10662 10664 10664 10664 10664 10666 10667 10668 10668 10669 10671 10673 10674 10676 10677 10678 10679 10680
10648 10647 10648 10649 10650 10651 10652 10654 10657 10657 10656 10656 10657 10656 10653 10650 10649 10646 10643 10641 10641 10641 10641 10641 10643 10645 10646 10646 10646 10647 10649 10651 10650 10648 10649 10650 10650 10650 10651 10651 10651 10652 10654 10656 10658 10661 10661 10661 10661 10662 10663 10664 10665 10666 10668 10669 10670 10672 10673 10674 10675 10676
10643 10642 10643 10645 10646 10646 10646 10648 10652 10653 10651 10649 10648 10649 10648 10647 10645 10644 10641 10639 10637 10637 10636 10636 10636 10637 10638 10639 10640 10641 10642 10644 10644 10643 10644 10644 10644 10645 10645 10645 10645 10646 10648 10652 10654 10657 10658 10657 10657 10658 10659 10661 10662 10663 10664 10665 10666 10668 10669 10670 10670 10672
10640 10639 10639 10640 10641 10642 10643 10644 10646 10648 10646 10643 10641 10641 10642 10641 10641 10640 10638 10636 10634 10634 10633 10632 10631 10631 10632 10633 10633 10634 10635 10637 10638 10638 10638 10638 10638 10639 10639 10639 10640 10641 10644 10647 10649 10652 10653 10653 10653 10654 10655 10657 10658 10659 10660 10661 10663 10664 10665 10665 10666 10667
10637 10636 10635 10636 10637 10639 10639 10639 10641 10642 10641 10639 10636 10635 10635 10635 10635 10634 10633 10632 10630 10629 10628 10627 10627 10627 10627 10627 10628 10628 10629 10630 10631 10632 10633 10633 10632 10633 10634 10634 10636 10637 10639 10642 10644 10646 10648 10649 10650 10650 10652 10653 10654 10656 10657 10658 10659 10660 10661 10662 10662 10663
10635 10634 10634 10634 10634 10635 10635 10634 10636 10637 10637 10635 10633 10631 10630 10629 10629 10629 10628 10627 10625 10624 10623 10622 10622 10622 10622 10622 10622 10623 10624 10625 10626 10627 10627 10628 10628 10628 10629 10630 10631 10633 10634 10636 10639 10641 10643 10644 10646 10647 10649 10650 10651 10653 10654 10656 10657 10657 10658 10658 10659 10660
10633 10632 10633 10633 10631 10630 10630 10629 10630 10632 10632 10632 10630 10628 10626 10625 10624 10624 10623 10622 10621 10620 10618 10618 10617 10617 10617 10618 10618 10619 10620 10621 10621 10622 10623 10623 10624 10624 10625 10626 10627 10628 10629 10631 10633 10636 10638 10640 10642 10644 10645 10647 10648 10650 10651 10653 10654 10654 10654 10655 10656 10658
10630 10630 10630 10629 10627 10625 10624 10624 10624 10626 10627 10628 10627 10626 10624 10622 10621 10620 10619 10618 10617 10616 10615 10614 10613 10613 10613 10614 10614 10615 10616 10617 10617 10618 10619 10619 10620 10621 10621 10622 10623 10624 10625 10626 10628 10631 10634 10636 10638 10640 10642 10644 10645 10647 10648 10649 10650 10651 10651 10652 10654 10655
10627 10626 10625 10624 10623 10621 10619 10618 10619 10621 10622 10623 10623 10623 10621 10620 10619 10618 10616 10615 10614 10612 10612 10611 10610 10609 10610 10610 10611 10612 10612 10613 10614 10615 10615 10616 10616 10617 10618 10619 10619 10620 10622 10623 10625 10627 10630 10632 10634 10635 10637 10640 10641 10643 10645 10646 10647 10648 10648 10649 10651 10652
10622 10621 10620 10618 10617 10616 10614 10613 10614 10615 10617 10619 10619 10619 10619 10618 10617 10616 10614 10613 10611 10610 10609 10608 10607 10607 10607 10607 10608 10608 10609 10609 10610 10611 10611 10612 10612 10613 10614 10615 10616 10617 10618 10620 10621 10624 10626 10628 10630 10632 10634 10636 10637 10639 10641 10643 10644 10645 10645 10646 10647 10648
10614 10614 10613 10612 10612 10611 10610 10608 10609 10610 10612 10613 10614 10614 10614 10614 10614 10613 10612 10611 10610 10608 10607 10606 10605 10604 10604 10605 10605 10605 10605 10606 10607 10607 10608 10608 10609 10610 10611 10611 10612 10613 10615 10616 10618 10620 10622 10624 10626 10628 10630 10632 10633 10635 10637 10639 10641 10642 10642 10642 10644 10645
10606 10605 10604 10604 10605 10605 10605 10604 10605 10606 10607 10607 10608 10609 10609 10610 10610 10610 10609 10609 10608 10606 10605 10604 10603 10602 10602 10602 10602 10602 10602 10603 10603 10603 10604 10605 10605 10606 10607 10608 10609 10609 10610 10612 10613 10615 10617 10619 10621 10623 10625 10628 10629 10631 10633 10635 10637 10638 10638 10639 10640 10641
10596 10593 10593 10596 10598 10599 10600 10601 10601 10602 10602 10601 10602 10603 10604 10605 10605 10605 10605 10605 10605 10604 10603 10602 10601 10600 10600 10599 10599 10599 10599 10600 10600 10600 10601 10601 10602 10602 10603 10604 10605 10605 10606 10607 10608 10610 10612 10614 10616 10618 10620 10622 10625 10626 10628 10630 10632 10634 10635 10635 10635 10637
10586 10584 10587 10591 10593 10593 10595 10597 10597 10598 10597 10596 10596 10597 10598 10599 10599 10600 10600 10601 10601 10601 10600 10599 10598 10598 10597 10597 10597 10597 10597 10597 10597 10597 10597 10598 10598 10598 10599 10600 10601 10601 10602 10603 10604 10605 10607 10609 10610 10612 10614 10617 10619 10621 10623 10625 10627 10629 10630 10631 10631 10632
10582 10580 10584 10588 10589 10589 10591 10592 10593 10593 10593 10591 10591 10592 10592 10592 10593 10593 10594 10595 10596 10596 10596 10596 10595 10595 10594 10594 10594 10594 10594 10594 10594 10594 10594 10594 10594 10595 10595 10596 10596 10597 10598 10599 10600 10601 10602 10604 10605 10607 10609 10611 10613 10615 10618 10620 10621 10623 10625 10626 10627 10627
10580 10579 10581 10584 10585 10585 10586 10587 10587 10588 10588 10587 10586 10586 10586 10586 10586 10587 10587 10588 10589 10590 10591 10591 10591 10591 10591 10591 10591 10591 10591 10591 10591 10591 10591 10591 10591 10591 10591 10592 10592 10593 10593 10594 10595 10596 10597 10599 10600 10601 10603 10605 10607 10609 10611 10614 10615 10617 10619 10621 10622 10623
10580 10583 10583 10580 10577 10577 10578 10579 10581 10582 10583 10583 10581 10581 10580 10580 10580 10580 10581 10581 10583 10584 10584 10585 10586 10586 10587 10587 10587 10587 10587 10587 10586 10586 10586 10587 10587 10587 10587 10588 10588 10589 10589 10590 10591 10592 10593 10594 10595 10596 10597 10599 10601 10603 10605 10607 10609 10611 10613 10615 10616 10618
10580 10582 10580 10574 10569 10569 10571 10573 10576 10577 10578 10578 10576 10575 10574 10573 10573 10574 10574 10575 10576 10577 10578 10579 10579 10580 10581 10581 10582 10582 10582 10582 10582 10581 10582 10582 10582 10583 10583 10584 10584 10585 10585 10585 10586 10587 10587 10588 10589 10591 10592 10593 10595 10597 10599 10600 10602 10604 10606 10608 10610 10612